Wind_Speed
10 10 9 10 10 11 11 11 12 12 13 14 15 15 15 15 15 15 15 16 17 17 18 18 18 19 19 19 20 21 21 22 22 23 23 23 24 24 24 25 26 26 27
10 10 10 11 11 11 12 12 13 13 14 14 14 14 14 15 15 15 16 16 17 17 18 18 18 19 20 21 21 21 22 23 23 23 23 25 25 25 26 27 27 27 28
11 11 11 11 12 12 12 13 14 15 15 14 14 14 14 15 15 16 16 17 17 18 18 18 19 19 20 21 21 22 23 24 24 24 24 24 25 26 27 27 28 28 29
11 11 11 12 12 12 13 14 15 15 15 15 15 15 15 15 15 16 17 17 17 17 18 19 19 19 20 22 22 23 24 24 25 25 25 26 26 27 26 27 27 28 29
12 11 12 12 13 12 13 14 14 14 14 14 15 15 15 15 16 16 17 17 17 17 18 19 19 20 21 23 24 25 25 25 26 26 26 27 27 27 28 28 28 29 30
12 12 12 13 13 13 13 14 14 14 14 14 15 15 15 16 16 17 18 18 18 19 19 20 21 21 22 23 23 24 25 25 26 27 27 28 28 28 28 29 29 29 30
12 12 12 13 13 13 14 14 14 14 15 16 15 15 16 16 17 18 19 18 18 19 20 21 22 23 23 24 25 25 26 26 27 27 28 28 28 27 28 29 29 30 31
13 13 13 14 13 14 14 15 15 15 15 15 15 15 15 16 17 17 18 18 19 20 21 22 23 24 25 25 26 27 27 27 28 28 28 28 28 28 28 29 30 30 31
14 14 14 14 14 15 15 16 16 15 16 16 16 16 16 17 17 18 19 19 21 22 23 23 24 25 26 26 27 28 28 29 29 28 28 29 29 29 29 30 30 31 32
15 15 15 15 15 15 16 16 16 16 17 17 17 17 17 18 18 19 20 21 22 23 24 25 26 26 27 27 28 28 29 29 29 29 29 30 30 31 32 32 33 33 34
16 16 16 16 16 17 17 17 17 18 18 18 18 18 19 19 20 21 22 22 23 23 25 26 26 27 27 28 28 28 29 29 30 30 31 31 32 32 33 34 35 35 35
16 16 17 18 18 18 18 18 18 19 19 19 20 20 21 21 22 22 23 23 24 24 25 26 27 27 27 28 28 30 31 31 32 33 33 34 34 34 35 35 35 35 35
17 17 18 18 19 19 19 19 20 20 20 20 21 21 22 23 23 24 24 24 25 26 27 27 27 28 28 29 30 31 32 33 34 34 35 35 35 35 35 35 35 35 35
18 19 19 19 19 19 20 21 21 22 22 22 22 23 23 24 25 25 25 26 27 27 27 28 28 29 29 30 31 32 32 33 34 35 35 35 36 36 35 34 34 34 34
20 20 20 21 21 21 22 22 22 23 23 24 24 24 25 25 26 27 27 27 28 28 28 28 29 29 30 31 32 33 34 34 34 35 36 36 36 35 35 35 35 35 34
21 21 21 22 22 22 22 23 23 24 25 25 25 26 26 27 28 28 28 28 29 29 29 29 30 30 32 33 33 34 34 35 35 36 36 35 35 35 35 36 35 35 36
23 23 23 22 23 23 23 24 24 25 26 26 27 27 28 28 29 29 29 29 30 30 30 30 31 32 33 33 34 34 35 35 35 35 35 35 35 36 36 36 36 36 36
24 24 23 23 23 24 24 25 26 26 26 27 27 28 29 29 30 30 30 31 31 31 31 31 32 33 33 33 34 34 35 35 35 35 35 35 36 36 36 36 36 36 35
23 24 24 25 25 25 25 26 26 26 27 27 28 29 30 30 31 31 31 31 31 31 31 32 32 33 33 33 34 34 35 35 35 35 35 35 36 36 36 35 35 34 33
24 24 25 25 25 26 26 27 27 27 28 29 29 30 30 30 30 31 31 31 31 31 32 32 32 32 33 33 33 34 34 35 35 35 35 35 35 35 34 34 33 32 31
25 25 25 26 26 26 26 27 27 28 29 29 30 30 30 30 31 31 30 31 31 32 32 32 32 32 33 33 33 34 34 34 34 34 33 33 33 33 32 32 31 30 29
25 25 25 25 26 26 27 27 28 29 29 29 29 30 30 30 30 30 30 31 31 32 32 32 32 32 32 32 33 34 34 34 34 33 32 31 31 31 30 30 29 29 28
25 25 25 26 27 27 28 28 29 30 29 29 30 31 31 30 30 30 31 32 32 32 32 32 32 32 32 33 33 34 34 34 33 32 32 31 30 30 29 29 28 27 26
24 25 25 26 26 27 28 28 29 29 29 30 30 30 30 30 30 31 32 32 32 32 31 31 32 32 32 32 32 33 32 32 31 31 30 29 29 29 28 28 27 26 26
24 24 24 25 26 27 27 28 28 29 29 29 29 30 30 30 31 31 31 31 31 31 31 31 31 32 32 31 31 30 30 30 30 30 29 29 28 28 27 27 26 25 25
24 24 25 25 26 26 26 26 26 27 27 28 29 30 30 30 30 31 30 30 31 31 31 31 31 31 31 30 30 29 29 29 29 29 28 28 27 27 26 26 26 26 26
Wind_Direction
303 304 302 302 304 303 303 300 298 299 297 293 289 285 286 287 285 286 285 282 283 284 286 287 286 286 288 290 288 287 289 291 291 289 285 286 284 284 284 284 285 281 279
302 300 301 303 305 305 305 304 303 301 300 297 293 289 287 288 286 287 286 284 286 289 288 287 286 286 287 290 290 290 291 292 292 293 292 291 289 287 286 286 286 285 282
299 300 300 303 306 309 308 308 306 306 303 298 297 293 290 290 290 289 287 287 289 290 292 292 291 290 290 292 294 293 293 294 294 294 295 296 294 293 292 291 290 288 285
300 300 301 302 305 307 306 308 310 309 308 300 298 296 296 293 293 293 292 291 292 291 291 293 294 294 294 294 293 293 295 296 297 297 296 296 295 295 294 292 291 290 289
300 302 304 304 306 306 307 310 313 313 313 307 301 297 297 297 298 299 297 295 293 292 290 291 294 295 296 297 297 296 295 296 297 298 297 296 295 294 294 293 292 291 291
298 301 302 301 303 306 308 310 313 314 316 314 307 303 299 298 299 300 298 297 296 294 291 291 293 295 298 299 300 299 298 298 299 299 298 296 295 294 293 294 293 292 291
299 297 298 301 302 305 309 310 313 313 316 316 312 309 305 302 301 299 298 298 297 296 296 295 296 296 298 299 300 300 299 299 299 298 298 297 296 295 294 294 293 293 292
300 301 299 300 301 304 307 308 311 314 316 317 316 314 310 307 304 302 302 301 299 297 297 297 298 297 300 301 301 301 300 300 299 299 299 298 297 296 296 296 294 294 293
298 299 303 303 302 301 303 307 311 313 314 315 318 315 311 308 308 307 305 305 302 300 298 298 298 299 299 300 300 300 300 300 299 299 299 300 299 298 298 298 297 295 295
295 297 298 300 302 302 304 307 310 313 313 315 316 316 311 309 310 309 307 307 305 302 301 300 300 300 300 301 301 301 301 301 300 300 300 300 300 299 298 298 297 296 296
292 293 294 298 300 300 303 305 306 308 309 312 313 313 312 311 310 309 308 307 307 305 304 304 304 304 303 303 303 303 303 303 302 302 302 302 301 300 300 299 298 297 296
292 294 295 296 297 299 301 302 304 305 306 308 309 309 310 310 310 310 308 308 307 307 307 307 305 305 305 305 306 305 305 306 305 303 302 302 301 301 300 299 299 299 298
291 293 294 295 296 298 299 300 302 305 305 306 306 307 307 308 309 308 307 306 307 307 306 306 305 305 305 306 306 306 306 306 306 306 304 302 301 302 301 299 299 298 298
289 291 293 293 294 296 298 299 300 302 304 305 306 307 307 307 307 307 307 307 307 307 306 305 305 306 306 306 307 306 306 307 306 306 304 303 303 302 302 301 300 299 298
287 289 291 292 293 294 296 299 301 302 304 306 306 306 307 307 307 307 307 307 307 307 306 305 305 305 306 306 306 306 307 307 307 306 304 304 304 303 302 301 300 299 298
286 287 288 290 291 294 296 298 300 302 303 304 305 306 306 307 307 308 308 308 307 307 306 306 305 305 306 306 306 306 307 307 307 305 305 305 305 304 303 302 301 300 300
284 285 287 289 291 293 296 298 299 301 302 303 304 305 305 306 306 307 306 306 306 306 306 306 306 306 306 306 306 307 307 307 307 306 306 307 306 306 305 304 303 302 301
282 284 286 289 290 292 295 297 300 301 303 304 305 305 305 305 305 305 305 305 305 305 305 305 306 306 307 306 306 306 307 307 307 307 307 307 308 308 307 306 305 304 302
283 284 286 288 291 293 296 298 300 301 303 304 305 306 305 305 306 305 305 305 305 305 305 305 306 306 306 306 306 307 307 307 307 308 308 308 308 308 309 308 308 307 306
284 285 287 289 291 293 297 300 301 302 302 304 305 305 306 306 305 305 305 305 305 304 305 305 305 306 306 307 307 308 308 308 308 308 309 309 309 310 311 311 311 311 310
283 285 287 290 291 294 297 300 301 301 301 302 305 306 306 306 306 306 306 306 305 305 305 306 306 305 306 307 308 308 309 310 309 309 310 311 311 312 312 313 314 313 312
282 285 287 289 292 295 297 299 300 301 301 303 305 306 306 306 306 306 306 306 307 307 307 306 307 307 308 307 307 307 308 309 310 310 310 311 312 312 312 313 314 314 313
282 285 287 289 291 295 297 299 300 300 302 304 306 306 306 306 306 306 305 305 306 307 307 306 306 306 307 308 307 308 308 309 309 309 310 310 310 311 312 313 313 314 313
284 285 287 290 293 294 296 297 299 301 303 304 306 307 305 306 306 305 304 304 305 306 306 305 305 306 307 308 308 309 309 308 309 309 309 310 311 311 312 312 312 311 312
284 286 288 291 293 295 296 297 299 301 303 305 307 307 306 306 306 307 307 307 307 308 307 305 305 306 308 309 309 310 311 310 310 309 310 311 311 312 312 311 311 312 312
284 286 289 291 293 294 297 299 301 303 304 305 306 307 307 307 307 308 308 309 310 310 310 309 309 309 309 309 309 310 311 311 311 312 312 312 312 313 313 313 312 312 312
Height
5889 5888 5888 5887 5887 5886 5886 5885 5885 5884 5884 5883 5882 5882 5881 5881 5880 5880 5880 5879 5879 5878 5878 5877 5876 5876 5875 5874 5873 5872 5871 5870 5868 5867 5865 5864 5863 5862 5861 5860 5859 5857 5856
5887 5887 5886 5886 5885 5884 5883 5883 5882 5881 5880 5879 5878 5878 5877 5877 5877 5876 5876 5876 5875 5874 5874 5873 5872 5871 5870 5869 5868 5867 5865 5864 5863 5861 5859 5858 5857 5856 5854 5852 5851 5850 5849
5885 5885 5884 5884 5883 5882 5881 5880 5879 5878 5877 5876 5875 5874 5874 5873 5873 5873 5872 5872 5871 5870 5869 5868 5867 5867 5866 5864 5863 5862 5860 5859 5857 5856 5855 5853 5851 5849 5847 5845 5844 5843 5841
5883 5882 5882 5882 5881 5880 5879 5878 5877 5875 5874 5872 5871 5870 5870 5870 5869 5869 5868 5867 5867 5866 5865 5864 5863 5862 5861 5860 5858 5857 5855 5853 5852 5850 5849 5847 5845 5843 5841 5839 5837 5835 5833
5881 5880 5880 5879 5878 5877 5877 5875 5874 5872 5870 5869 5868 5867 5866 5866 5865 5865 5864 5863 5862 5862 5861 5860 5858 5857 5856 5855 5853 5851 5849 5848 5846 5844 5842 5840 5838 5836 5834 5832 5830 5828 5826
5879 5878 5878 5877 5876 5875 5874 5873 5871 5870 5868 5866 5864 5863 5862 5862 5861 5861 5860 5859 5858 5857 5856 5855 5854 5852 5851 5849 5847 5845 5843 5841 5839 5837 5835 5833 5831 5828 5826 5824 5822 5820 5818
5877 5876 5876 5875 5874 5873 5871 5870 5869 5867 5865 5863 5862 5860 5859 5858 5858 5857 5856 5855 5854 5853 5851 5850 5848 5847 5845 5843 5841 5839 5837 5834 5832 5830 5828 5825 5823 5821 5818 5816 5813 5811 5809
5874 5873 5873 5872 5871 5870 5869 5868 5866 5864 5863 5861 5859 5858 5856 5855 5854 5852 5851 5850 5849 5848 5846 5844 5843 5841 5839 5837 5835 5832 5830 5828 5825 5823 5821 5818 5815 5813 5810 5808 5805 5803 5800
5871 5871 5870 5869 5868 5867 5866 5865 5863 5862 5860 5858 5857 5855 5853 5852 5851 5849 5848 5846 5845 5843 5841 5839 5837 5835 5833 5831 5828 5826 5823 5821 5818 5815 5813 5810 5808 5805 5802 5799 5797 5794 5791
5868 5868 5867 5866 5865 5864 5863 5862 5860 5859 5857 5856 5854 5852 5851 5849 5847 5846 5844 5842 5840 5838 5836 5834 5832 5829 5826 5824 5821 5819 5816 5813 5811 5808 5806 5803 5800 5797 5793 5791 5787 5784 5781
5865 5865 5864 5863 5862 5861 5860 5858 5857 5856 5854 5853 5851 5849 5848 5846 5844 5842 5840 5837 5835 5833 5831 5828 5825 5823 5820 5818 5815 5812 5809 5806 5803 5801 5798 5795 5791 5788 5784 5781 5777 5774 5771
5861 5861 5860 5860 5859 5857 5856 5855 5854 5853 5851 5849 5848 5846 5844 5842 5840 5837 5835 5833 5830 5828 5825 5822 5819 5817 5814 5811 5808 5806 5802 5799 5796 5792 5789 5786 5782 5779 5775 5771 5767 5764 5760
5858 5857 5857 5856 5855 5854 5853 5851 5850 5849 5847 5845 5843 5841 5839 5837 5835 5832 5830 5827 5824 5822 5819 5816 5813 5810 5807 5804 5801 5798 5795 5791 5787 5784 5780 5777 5773 5769 5765 5761 5757 5754 5750
5854 5853 5853 5852 5851 5850 5849 5847 5846 5844 5842 5840 5838 5836 5834 5832 5829 5827 5824 5821 5818 5815 5812 5809 5806 5803 5800 5797 5794 5790 5786 5783 5779 5775 5771 5767 5763 5759 5755 5752 5748 5745 5741
5850 5849 5848 5847 5846 5845 5844 5842 5840 5839 5837 5835 5833 5831 5829 5826 5823 5820 5817 5814 5811 5809 5806 5803 5800 5797 5793 5790 5786 5782 5778 5774 5770 5766 5762 5758 5754 5750 5746 5742 5738 5734 5731
5845 5844 5843 5842 5841 5840 5838 5837 5835 5833 5831 5829 5827 5825 5822 5820 5817 5814 5811 5808 5804 5802 5799 5795 5792 5789 5785 5782 5778 5774 5770 5765 5761 5757 5753 5748 5744 5740 5736 5732 5728 5724 5720
5839 5839 5838 5837 5836 5834 5833 5831 5830 5828 5825 5823 5821 5818 5816 5813 5810 5807 5804 5801 5797 5794 5791 5788 5784 5781 5777 5773 5769 5765 5761 5756 5752 5748 5744 5739 5735 5731 5727 5722 5718 5714 5710
5833 5833 5832 5831 5830 5829 5827 5825 5824 5821 5819 5817 5814 5812 5809 5806 5803 5799 5796 5793 5790 5786 5783 5779 5776 5772 5768 5764 5760 5756 5752 5748 5743 5739 5735 5730 5726 5722 5717 5713 5708 5704 5700
5827 5827 5826 5825 5824 5822 5821 5819 5817 5815 5813 5810 5808 5805 5802 5798 5795 5792 5788 5785 5782 5778 5775 5771 5767 5764 5760 5756 5751 5747 5743 5739 5735 5730 5726 5722 5717 5713 5708 5704 5699 5694 5690
5821 5820 5820 5818 5817 5815 5814 5812 5810 5808 5806 5803 5800 5797 5794 5791 5788 5784 5781 5777 5774 5770 5767 5763 5759 5755 5751 5747 5743 5739 5735 5731 5726 5722 5717 5713 5709 5704 5699 5695 5690 5686 5681
5815 5814 5813 5811 5810 5808 5807 5805 5803 5801 5799 5796 5793 5790 5786 5783 5780 5776 5773 5769 5766 5762 5758 5754 5751 5747 5743 5739 5735 5731 5726 5722 5717 5713 5709 5705 5700 5696 5691 5687 5682 5678 5674
5808 5807 5806 5805 5803 5802 5800 5798 5796 5793 5791 5788 5785 5782 5778 5775 5772 5768 5765 5761 5758 5754 5750 5746 5742 5739 5735 5731 5727 5722 5718 5714 5709 5705 5701 5697 5692 5688 5684 5680 5675 5671 5667
5801 5800 5799 5798 5797 5795 5793 5791 5788 5786 5783 5781 5778 5774 5771 5767 5764 5761 5757 5753 5750 5746 5742 5738 5734 5730 5726 5722 5718 5714 5710 5705 5701 5697 5693 5689 5685 5681 5677 5673 5669 5665 5661
5794 5793 5792 5791 5790 5788 5786 5783 5781 5778 5776 5773 5770 5767 5763 5759 5756 5753 5749 5745 5741 5738 5734 5730 5726 5722 5718 5714 5710 5706 5702 5698 5694 5690 5686 5682 5678 5674 5670 5666 5663 5659 5655
5788 5787 5785 5784 5782 5780 5778 5776 5774 5771 5768 5765 5762 5759 5755 5752 5748 5745 5741 5737 5734 5730 5726 5722 5718 5714 5710 5706 5702 5698 5694 5691 5687 5683 5679 5675 5671 5667 5664 5660 5656 5653 5649
5781 5780 5778 5777 5775 5773 5771 5769 5766 5764 5761 5758 5754 5751 5748 5744 5741 5737 5733 5730 5726 5722 5718 5714 5710 5706 5702 5699 5695 5691 5687 5684 5680 5676 5672 5668 5664 5661 5657 5654 5650 5647 5643